Tracking 18793 objects as of 23-September-2017
HD Live streaming from Space Station
objects crossing your sky now

NOAA 1

Track NOAA 1 now!
10-day predictions
NOAA 1 is classified as:


NORAD ID: 4793
Int'l Code: 1970-106A
Perigee: 1,429.9 km
Apogee: 1,480.2 km
Inclination: 101.8 °
Period: 114.8 minutes
Semi major axis: 7826 km
RCS: 3.071 m2 (large)
Launch date: December 11, 1970
Source: United States (US)
Launch site: AIR FORCE WESTERN TEST RANGE (AFWTR)
aabbcc
Your satellite tracking list
Your tracking list is empty





NASA's NSSDC Master Catalog

Two Line Element Set (TLE):
1 04793U 70106A   17265.25852162 -.00000034  00000-0  69146-4 0  9997
2 04793 101.7927 329.8452 0032111  71.3250 331.5951 12.53982104141324
Source of the keplerian elements: AFSPC